| time (UTC) | temp F | wind direction | speed MPH | gust MPH | rain 1hr in | rain 24hr in | rain mn in | humidity % | barometer mb |
| 20260507132724 | 56 | 57 | 5.0 | 10.0 | 0.00 | 0.00 | 0.00 | 92 | 1018.4 |
| 20260507132221 | 56 | 55 | 6.0 | 10.0 | 0.00 | 0.00 | 0.00 | 93 | 1018.4 |
| 20260507131717 | 56 | 23 | 4.0 | 6.0 | 0.00 | 0.00 | 0.00 | 93 | 1018.7 |
| 20260507131215 | 56 | 37 | 4.0 | 6.0 | 0.00 | 0.00 | 0.00 | 92 | 1018.5 |
| 20260507130711 | 56 | 57 | 8.0 | 13.0 | 0.00 | 0.00 | 0.00 | 93 | 1018.3 |
| 20260507130209 | 56 | 46 | 7.0 | 9.0 | 0.00 | 0.00 | 0.00 | 93 | 1018.3 |
| 20260507125708 | 56 | 40 | 5.0 | 8.0 | 0.00 | 0.00 | 0.00 | 93 | 1018.7 |
| 20260507125205 | 56 | 35 | 12.0 | 17.0 | 0.00 | 0.00 | 0.00 | 93 | 1018.3 |
| 20260507124701 | 56 | 46 | 11.0 | 21.0 | 0.00 | 0.00 | 0.00 | 93 | 1018.3 |
| 20260507124158 | 56 | 345 | 7.0 | 10.0 | 0.00 | 0.00 | 0.00 | 93 | 1018.5 |
| 20260507123657 | 56 | 50 | 4.0 | 8.0 | 0.00 | 0.00 | 0.00 | 93 | 1018.5 |
| 20260507123154 | 56 | 51 | 10.0 | 14.0 | 0.00 | 0.00 | 0.00 | 93 | 1018.7 |
| 20260507122649 | 56 | 39 | 3.0 | 5.0 | 0.00 | 0.00 | 0.00 | 93 | 1018.5 |
| 20260507122145 | 56 | 53 | 6.0 | 7.0 | 0.00 | 0.00 | 0.00 | 93 | 1018.6 |
| 20260507121641 | 56 | 31 | 5.0 | 7.0 | 0.00 | 0.00 | 0.00 | 93 | 1018.8 |
| 20260507121137 | 56 | 30 | 5.0 | 7.0 | 0.00 | 0.00 | 0.00 | 93 | 1018.2 |
| 20260507120633 | 56 | 32 | 9.0 | 14.0 | 0.00 | 0.00 | 0.00 | 93 | 1017.9 |
| 20260507120130 | 56 | 29 | 7.0 | 10.0 | 0.00 | 0.00 | 0.00 | 93 | 1017.6 |
| 20260507115626 | 57 | 35 | 5.0 | 9.0 | 0.00 | 0.00 | 0.00 | 92 | 1017.4 |
| 20260507115122 | 57 | 20 | 2.0 | 3.0 | 0.00 | 0.00 | 0.00 | 92 | 1017.7 |
| 20260507114618 | 57 | 42 | 7.0 | 10.0 | 0.00 | 0.00 | 0.00 | 92 | 1017.5 |
| 20260507114116 | 57 | 63 | 11.0 | 20.0 | 0.00 | 0.00 | 0.00 | 92 | 1017.4 |
| 20260507113613 | 57 | 27 | 8.0 | 13.0 | 0.00 | 0.00 | 0.00 | 92 | 1017.4 |
| 20260507113110 | 57 | 30 | 5.0 | 7.0 | 0.00 | 0.00 | 0.00 | 91 | 1017.6 |
| 20260507112608 | 57 | 34 | 7.0 | 13.0 | 0.00 | 0.00 | 0.00 | 91 | 1017.8 |
| 20260507112104 | 57 | 35 | 7.0 | 9.0 | 0.00 | 0.00 | 0.00 | 91 | 1017.9 |
| 20260507111601 | 57 | 348 | 6.0 | 8.0 | 0.00 | 0.00 | 0.00 | 91 | 1017.8 |
| 20260507111058 | 57 | 60 | 8.0 | 13.0 | 0.00 | 0.00 | 0.00 | 91 | 1017.7 |
| 20260507110554 | 57 | 335 | 8.0 | 14.0 | 0.00 | 0.00 | 0.00 | 91 | 1017.6 |
| 20260507110051 | 57 | 56 | 7.0 | 14.0 | 0.00 | 0.00 | 0.00 | 91 | 1017.5 |
| 20260507105548 | 57 | 40 | 9.0 | 15.0 | 0.00 | 0.00 | 0.00 | 91 | 1017.5 |
| 20260507105044 | 57 | 17 | 7.0 | 8.0 | 0.00 | 0.00 | 0.00 | 91 | 1017.4 |
| 20260507104541 | 57 | 27 | 2.0 | 3.0 | 0.00 | 0.00 | 0.00 | 91 | 1017.4 |
| 20260507104037 | 58 | 26 | 5.0 | 6.0 | 0.00 | 0.00 | 0.00 | 91 | 1017.8 |
| 20260507103534 | 58 | 36 | 7.0 | 15.0 | 0.00 | 0.00 | 0.00 | 90 | 1017.8 |
| 20260507103031 | 58 | 42 | 3.0 | 7.0 | 0.00 | 0.00 | 0.00 | 91 | 1017.8 |
| 20260507102527 | 57 | 317 | 3.0 | 5.0 | 0.00 | 0.00 | 0.00 | 91 | 1017.2 |
| 20260507102023 | 58 | 28 | 3.0 | 5.0 | 0.00 | 0.00 | 0.00 | 90 | 1016.8 |
| 20260507101519 | 58 | 23 | 4.0 | 6.0 | 0.00 | 0.00 | 0.00 | 90 | 1017.3 |
| 20260507101015 | 58 | 25 | 2.0 | 3.0 | 0.00 | 0.00 | 0.00 | 90 | 1017.4 |
| 20260507100513 | 58 | 26 | 5.0 | 7.0 | 0.00 | 0.00 | 0.00 | 90 | 1017.6 |
| 20260507100011 | 58 | 40 | 11.0 | 15.0 | 0.00 | 0.00 | 0.00 | 90 | 1017.0 |
| 20260507095508 | 58 | 45 | 6.0 | 8.0 | 0.00 | 0.00 | 0.00 | 90 | 1017.4 |
| 20260507095005 | 58 | 8 | 3.0 | 6.0 | 0.00 | 0.00 | 0.00 | 90 | 1017.4 |
| 20260507094501 | 58 | 34 | 6.0 | 10.0 | 0.00 | 0.00 | 0.00 | 90 | 1017.6 |
| 20260507093958 | 58 | 52 | 4.0 | 6.0 | 0.00 | 0.00 | 0.00 | 90 | 1017.3 |
| 20260507093456 | 58 | 17 | 1.0 | 2.0 | 0.00 | 0.00 | 0.00 | 90 | 1017.2 |
| 20260507092954 | 58 | 53 | 3.0 | 6.0 | 0.00 | 0.00 | 0.00 | 90 | 1017.3 |
| 20260507092450 | 58 | 69 | 8.0 | 11.0 | 0.00 | 0.00 | 0.00 | 90 | 1016.7 |
| 20260507091947 | 58 | 45 | 4.0 | 6.0 | 0.00 | 0.00 | 0.00 | 90 | 1017.1 |
| 20260507091444 | 58 | 32 | 6.0 | 7.0 | 0.00 | 0.00 | 0.00 | 90 | 1017.1 |
| 20260507090939 | 58 | 35 | 7.0 | 9.0 | 0.00 | 0.00 | 0.00 | 90 | 1017.1 |
| 20260507090436 | 58 | 37 | 4.0 | 6.0 | 0.00 | 0.00 | 0.00 | 90 | 1016.8 |
| 20260507085932 | 58 | 55 | 6.0 | 9.0 | 0.00 | 0.00 | 0.00 | 90 | 1016.4 |
| 20260507085429 | 58 | 32 | 5.0 | 7.0 | 0.00 | 0.00 | 0.00 | 89 | 1016.5 |
| 20260507084926 | 58 | 20 | 6.0 | 9.0 | 0.00 | 0.00 | 0.00 | 90 | 1016.4 |
| 20260507084423 | 58 | 30 | 5.0 | 6.0 | 0.00 | 0.00 | 0.00 | 89 | 1016.5 |
| 20260507083921 | 58 | 47 | 7.0 | 9.0 | 0.00 | 0.00 | 0.00 | 89 | 1016.6 |
| 20260507083417 | 58 | 56 | 5.0 | 8.0 | 0.00 | 0.00 | 0.00 | 89 | 1016.6 |
| 20260507082913 | 58 | 8 | 3.0 | 3.0 | 0.00 | 0.00 | 0.00 | 89 | 1016.2 |
| 20260507082409 | 59 | 357 | 2.0 | 2.0 | 0.00 | 0.00 | 0.00 | 89 | 1016.3 |
| 20260507081906 | 59 | 66 | 3.0 | 3.0 | 0.00 | 0.00 | 0.00 | 89 | 1016.7 |
| 20260507081402 | 59 | 35 | 5.0 | 9.0 | 0.00 | 0.00 | 0.00 | 89 | 1016.4 |
| 20260507080859 | 59 | 20 | 1.0 | 1.0 | 0.00 | 0.00 | 0.00 | 88 | 1016.1 |
| 20260507080355 | 59 | 23 | 3.0 | 5.0 | 0.00 | 0.00 | 0.00 | 88 | 1016.3 |
| 20260507075851 | 59 | 357 | 2.0 | 2.0 | 0.00 | 0.00 | 0.00 | 89 | 1016.3 |
| 20260507075347 | 59 | 20 | 3.0 | 3.0 | 0.00 | 0.00 | 0.00 | 88 | 1016.1 |
| 20260507074843 | 59 | 23 | 7.0 | 9.0 | 0.00 | 0.00 | 0.00 | 88 | 1015.7 |
| 20260507074341 | 59 | 54 | 3.0 | 5.0 | 0.00 | 0.00 | 0.00 | 88 | 1016.1 |
| 20260507073838 | 59 | 48 | 4.0 | 6.0 | 0.00 | 0.00 | 0.00 | 88 | 1016.4 |
| 20260507073334 | 59 | 344 | 1.0 | 1.0 | 0.00 | 0.00 | 0.00 | 88 | 1016.6 |
| 20260507072832 | 59 | 43 | 3.0 | 3.0 | 0.00 | 0.00 | 0.00 | 87 | 1015.9 |
| 20260507072329 | 59 | 20 | 7.0 | 9.0 | 0.00 | 0.00 | 0.00 | 87 | 1015.4 |
| 20260507071826 | 59 | 46 | 5.0 | 8.0 | 0.00 | 0.00 | 0.00 | 87 | 1015.4 |
| 20260507071323 | 59 | 12 | 5.0 | 8.0 | 0.00 | 0.00 | 0.00 | 87 | 1015.6 |
| 20260507070819 | 59 | 56 | 5.0 | 9.0 | 0.00 | 0.00 | 0.00 | 87 | 1015.6 |
| 20260507070317 | 59 | 19 | 6.0 | 8.0 | 0.00 | 0.00 | 0.00 | 87 | 1015.8 |
| 20260507065814 | 59 | 75 | 4.0 | 5.0 | 0.00 | 0.00 | 0.00 | 86 | 1015.8 |
| 20260507065310 | 59 | 71 | 5.0 | 8.0 | 0.00 | 0.00 | 0.00 | 86 | 1015.6 |
| 20260507064808 | 59 | 39 | 6.0 | 8.0 | 0.00 | 0.00 | 0.00 | 86 | 1016.1 |
| 20260507064306 | 59 | 65 | 5.0 | 6.0 | 0.00 | 0.00 | 0.00 | 86 | 1015.8 |
| 20260507063804 | 59 | 43 | 8.0 | 10.0 | 0.00 | 0.00 | 0.00 | 86 | 1015.4 |
| 20260507063301 | 59 | 46 | 9.0 | 14.0 | 0.00 | 0.00 | 0.00 | 86 | 1015.3 |
| 20260507062757 | 59 | 64 | 6.0 | 8.0 | 0.00 | 0.00 | 0.00 | 86 | 1015.9 |
| 20260507062254 | 59 | 58 | 5.0 | 7.0 | 0.00 | 0.00 | 0.00 | 86 | 1015.9 |
| 20260507061752 | 59 | 25 | 9.0 | 11.0 | 0.00 | 0.00 | 0.00 | 86 | 1015.9 |
| 20260507061250 | 60 | 32 | 6.0 | 10.0 | 0.00 | 0.00 | 0.00 | 86 | 1015.7 |
| 20260507060748 | 60 | 101 | 11.0 | 14.0 | 0.00 | 0.00 | 0.00 | 85 | 1015.9 |
| 20260507060244 | 60 | 51 | 8.0 | 9.0 | 0.00 | 0.00 | 0.00 | 86 | 1015.9 |
| 20260507055740 | 60 | 37 | 9.0 | 11.0 | 0.00 | 0.02 | 0.02 | 86 | 1015.8 |
| 20260507055236 | 60 | 30 | 8.0 | 9.0 | 0.00 | 0.02 | 0.02 | 86 | 1016.2 |
| 20260507054727 | 60 | 59 | 5.0 | 6.0 | 0.00 | 0.02 | 0.02 | 86 | 1016.1 |
| 20260507054224 | 60 | 39 | 5.0 | 7.0 | 0.00 | 0.02 | 0.02 | 86 | 1015.7 |
| 20260507053722 | 60 | 343 | 5.0 | 8.0 | 0.00 | 0.02 | 0.02 | 86 | 1015.6 |
| 20260507053219 | 60 | 57 | 5.0 | 9.0 | 0.00 | 0.02 | 0.02 | 85 | 1015.5 |
| 20260507052718 | 60 | 36 | 9.0 | 11.0 | 0.00 | 0.02 | 0.02 | 85 | 1015.7 |
| 20260507052213 | 60 | 344 | 7.0 | 15.0 | 0.00 | 0.02 | 0.02 | 85 | 1015.4 |
| 20260507051711 | 60 | 36 | 7.0 | 8.0 | 0.00 | 0.02 | 0.02 | 85 | 1015.7 |
| 20260507051208 | 60 | 49 | 8.0 | 11.0 | 0.00 | 0.02 | 0.02 | 85 | 1015.7 |
| 20260507050704 | 60 | 36 | 8.0 | 10.0 | 0.00 | 0.02 | 0.02 | 85 | 1015.4 |
| 20260507050201 | 60 | 71 | 7.0 | 10.0 | 0.00 | 0.02 | 0.02 | 85 | 1015.6 |
| 20260507045658 | 60 | 52 | 9.0 | 11.0 | 0.00 | 0.02 | 0.02 | 85 | 1015.7 |
| 20260507045155 | 60 | 57 | 9.0 | 14.0 | 0.00 | 0.02 | 0.02 | 85 | 1015.7 |
| 20260507044651 | 60 | 53 | 11.0 | 14.0 | 0.00 | 0.02 | 0.02 | 85 | 1015.4 |
| 20260507044148 | 60 | 48 | 14.0 | 17.0 | 0.00 | 0.02 | 0.02 | 85 | 1015.7 |
| 20260507043644 | 60 | 40 | 9.0 | 11.0 | 0.00 | 0.02 | 0.02 | 85 | 1015.9 |
| 20260507043141 | 60 | 35 | 8.0 | 11.0 | 0.00 | 0.02 | 0.02 | 85 | 1015.6 |
| 20260507042638 | 60 | 40 | 5.0 | 10.0 | 0.00 | 0.02 | 0.02 | 85 | 1015.7 |
| 20260507042127 | 60 | 46 | 7.0 | 9.0 | 0.00 | 0.02 | 0.02 | 85 | 1015.8 |
| 20260507041625 | 60 | 35 | 7.0 | 9.0 | 0.00 | 0.02 | 0.02 | 85 | 1015.6 |
| 20260507041121 | 61 | 55 | 5.0 | 8.0 | 0.00 | 0.02 | 0.02 | 85 | 1015.4 |
| 20260507040618 | 61 | 18 | 7.0 | 11.0 | 0.00 | 0.02 | 0.02 | 85 | 1015.7 |
| 20260507040114 | 61 | 41 | 6.0 | 8.0 | 0.00 | 0.02 | 0.02 | 86 | 1015.9 |
| 20260507035610 | 61 | 74 | 7.0 | 10.0 | 0.00 | 0.02 | 0.02 | 85 | 1015.9 |
| 20260507035101 | 61 | 43 | 6.0 | 8.0 | 0.00 | 0.02 | 0.02 | 85 | 1016.1 |
| 20260507034558 | 61 | 39 | 3.0 | 8.0 | 0.00 | 0.02 | 0.02 | 85 | 1015.9 |
| 20260507034056 | 61 | 19 | 9.0 | 11.0 | 0.00 | 0.02 | 0.02 | 86 | 1015.9 |
| 20260507033554 | 61 | 0 | 11.0 | 13.0 | 0.00 | 0.02 | 0.02 | 86 | 1015.5 |
| 20260507033051 | 61 | 30 | 3.0 | 6.0 | 0.00 | 0.02 | 0.02 | 86 | 1015.9 |
| 20260507032548 | 61 | 43 | 9.0 | 14.0 | 0.00 | 0.02 | 0.02 | 86 | 1015.3 |
| 20260507032044 | 61 | 52 | 6.0 | 7.0 | 0.00 | 0.02 | 0.02 | 86 | 1015.5 |
| 20260507031541 | 61 | 14 | 4.0 | 6.0 | 0.00 | 0.02 | 0.02 | 86 | 1015.2 |
| 20260507031038 | 61 | 40 | 6.0 | 9.0 | 0.00 | 0.02 | 0.02 | 86 | 1015.4 |
| 20260507030534 | 60 | 41 | 4.0 | 5.0 | 0.00 | 0.02 | 0.02 | 87 | 1015.4 |
| 20260507030032 | 61 | 54 | 2.0 | 5.0 | 0.00 | 0.02 | 0.02 | 86 | 1015.3 |
| 20260507025529 | 61 | 58 | 7.0 | 9.0 | 0.00 | 0.02 | 0.02 | 86 | 1014.8 |
| 20260507025027 | 61 | 35 | 7.0 | 8.0 | 0.00 | 0.02 | 0.02 | 86 | 1015.2 |
| 20260507024524 | 61 | 8 | 4.0 | 8.0 | 0.00 | 0.02 | 0.02 | 86 | 1015.8 |
| 20260507024021 | 61 | 36 | 6.0 | 9.0 | 0.00 | 0.02 | 0.02 | 86 | 1015.5 |
| 20260507023516 | 61 | 34 | 3.0 | 7.0 | 0.00 | 0.02 | 0.02 | 86 | 1015.5 |
| 20260507023014 | 61 | 2 | 5.0 | 6.0 | 0.00 | 0.02 | 0.02 | 86 | 1015.3 |
| 20260507022510 | 61 | 20 | 3.0 | 6.0 | 0.00 | 0.02 | 0.02 | 86 | 1014.8 |
| 20260507022006 | 61 | 36 | 7.0 | 11.0 | 0.00 | 0.02 | 0.02 | 86 | 1014.9 |
| 20260507021501 | 61 | 32 | 7.0 | 9.0 | 0.00 | 0.02 | 0.02 | 86 | 1014.6 |
| 20260507020958 | 61 | 37 | 3.0 | 5.0 | 0.00 | 0.02 | 0.02 | 86 | 1015.0 |
| 20260507020455 | 61 | 32 | 4.0 | 6.0 | 0.00 | 0.02 | 0.02 | 86 | 1014.7 |
| 20260507015952 | 61 | 336 | 4.0 | 7.0 | 0.00 | 0.02 | 0.02 | 86 | 1014.9 |
| 20260507015451 | 61 | 43 | 3.0 | 5.0 | 0.00 | 0.02 | 0.02 | 86 | 1014.8 |
| 20260507014947 | 61 | 352 | 5.0 | 8.0 | 0.00 | 0.02 | 0.02 | 86 | 1014.5 |
| 20260507014444 | 61 | 27 | 3.0 | 3.0 | 0.00 | 0.02 | 0.02 | 85 | 1014.3 |
| 20260507013940 | 61 | 21 | 4.0 | 8.0 | 0.00 | 0.02 | 0.02 | 86 | 1014.2 |
| 20260507013437 | 61 | 356 | 3.0 | 5.0 | 0.00 | 0.02 | 0.02 | 86 | 1014.6 |
| 20260507012935 | 61 | 40 | 4.0 | 6.0 | 0.00 | 0.02 | 0.02 | 86 | 1014.4 |
| 20260507012431 | 61 | 25 | 5.0 | 8.0 | 0.00 | 0.02 | 0.02 | 86 | 1014.1 |
| 20260507011928 | 61 | 25 | 4.0 | 6.0 | 0.00 | 0.02 | 0.02 | 86 | 1013.8 |
| 20260507011426 | 61 | 351 | 4.0 | 7.0 | 0.00 | 0.02 | 0.02 | 86 | 1013.7 |
| 20260507010925 | 61 | 42 | 5.0 | 6.0 | 0.00 | 0.02 | 0.02 | 86 | 1013.7 |
| 20260507010421 | 61 | 11 | 3.0 | 5.0 | 0.00 | 0.02 | 0.02 | 85 | 1013.9 |
| 20260507005918 | 61 | 19 | 2.0 | 2.0 | 0.00 | 0.02 | 0.02 | 85 | 1014.1 |
| 20260507005415 | 61 | 349 | 4.0 | 5.0 | 0.00 | 0.02 | 0.02 | 85 | 1013.8 |
| 20260507004911 | 61 | 26 | 4.0 | 6.0 | 0.00 | 0.02 | 0.02 | 85 | 1013.9 |
| 20260507004408 | 61 | 5 | 4.0 | 7.0 | 0.00 | 0.02 | 0.02 | 85 | 1013.5 |
| 20260507003906 | 61 | 42 | 8.0 | 13.0 | 0.00 | 0.02 | 0.02 | 85 | 1013.3 |
| 20260507003401 | 61 | 22 | 3.0 | 3.0 | 0.00 | 0.02 | 0.02 | 85 | 1013.7 |
| 20260507002856 | 61 | 32 | 4.0 | 6.0 | 0.00 | 0.02 | 0.02 | 85 | 1013.5 |
| 20260507002352 | 62 | 33 | 3.0 | 5.0 | 0.00 | 0.02 | 0.02 | 85 | 1013.4 |
| 20260507001850 | 62 | 35 | 3.0 | 5.0 | 0.00 | 0.02 | 0.02 | 85 | 1013.1 |
| 20260507001346 | 62 | 328 | 2.0 | 2.0 | 0.00 | 0.02 | 0.02 | 84 | 1013.7 |
| 20260507000843 | 61 | 13 | 4.0 | 5.0 | 0.00 | 0.02 | 0.02 | 85 | 1013.4 |
| 20260507000338 | 61 | 30 | 7.0 | 10.0 | 0.00 | 0.02 | 0.02 | 85 | 1013.7 |
| 20260506235835 | 61 | 25 | 4.0 | 5.0 | 0.00 | 0.02 | 0.02 | 85 | 1013.3 |
| 20260506235332 | 61 | 34 | 4.0 | 7.0 | 0.00 | 0.02 | 0.02 | 85 | 1013.1 |
| 20260506234828 | 61 | 3 | 3.0 | 3.0 | 0.00 | 0.02 | 0.02 | 85 | 1013.4 |
| 20260506234326 | 61 | 348 | 5.0 | 6.0 | 0.00 | 0.02 | 0.02 | 85 | 1013.7 |
| 20260506233824 | 62 | 346 | 6.0 | 9.0 | 0.00 | 0.02 | 0.02 | 84 | 1013.3 |
| 20260506233319 | 61 | 358 | 2.0 | 3.0 | 0.00 | 0.02 | 0.02 | 84 | 1013.0 |
| 20260506232817 | 61 | 14 | 7.0 | 9.0 | 0.00 | 0.02 | 0.02 | 84 | 1013.0 |
| 20260506232312 | 61 | 24 | 7.0 | 10.0 | 0.00 | 0.02 | 0.02 | 85 | 1013.1 |
| 20260506231809 | 62 | 336 | 3.0 | 5.0 | 0.00 | 0.02 | 0.02 | 84 | 1013.1 |
| 20260506231307 | 62 | 33 | 5.0 | 6.0 | 0.00 | 0.02 | 0.02 | 84 | 1013.0 |
| 20260506230804 | 62 | 15 | 5.0 | 6.0 | 0.00 | 0.02 | 0.02 | 84 | 1013.5 |
| 20260506230300 | 62 | 37 | 3.0 | 5.0 | 0.00 | 0.02 | 0.02 | 83 | 1013.1 |
| 20260506225756 | 62 | 339 | 4.0 | 7.0 | 0.00 | 0.02 | 0.02 | 83 | 1012.9 |
| 20260506225254 | 61 | 5 | 3.0 | 5.0 | 0.00 | 0.02 | 0.02 | 84 | 1012.9 |
| 20260506224745 | 61 | 340 | 7.0 | 8.0 | 0.00 | 0.02 | 0.02 | 85 | 1013.0 |
| 20260506224243 | 61 | 32 | 5.0 | 7.0 | 0.00 | 0.02 | 0.02 | 85 | 1013.2 |
| 20260506223738 | 61 | 26 | 3.0 | 6.0 | 0.00 | 0.02 | 0.02 | 85 | 1013.3 |
| 20260506223233 | 60 | 20 | 4.0 | 7.0 | 0.00 | 0.02 | 0.02 | 85 | 1013.0 |
| 20260506222731 | 60 | 353 | 2.0 | 3.0 | 0.00 | 0.02 | 0.02 | 85 | 1013.1 |
| 20260506222226 | 60 | 345 | 5.0 | 8.0 | 0.00 | 0.02 | 0.02 | 85 | 1013.0 |
| 20260506221724 | 61 | 15 | 6.0 | 8.0 | 0.00 | 0.02 | 0.02 | 85 | 1012.5 |
| 20260506221222 | 61 | 37 | 5.0 | 7.0 | 0.00 | 0.02 | 0.02 | 85 | 1013.0 |
| 20260506220714 | 60 | 16 | 5.0 | 9.0 | 0.00 | 0.02 | 0.02 | 86 | 1013.0 |
| 20260506220213 | 60 | 43 | 5.0 | 7.0 | 0.00 | 0.02 | 0.02 | 86 | 1013.0 |
| 20260506215710 | 60 | 17 | 7.0 | 10.0 | 0.00 | 0.02 | 0.02 | 86 | 1013.1 |
| 20260506215206 | 60 | 14 | 5.0 | 8.0 | 0.00 | 0.02 | 0.02 | 86 | 1013.0 |
| 20260506214703 | 60 | 349 | 9.0 | 16.0 | 0.00 | 0.02 | 0.02 | 86 | 1012.9 |
| 20260506214200 | 60 | 19 | 7.0 | 9.0 | 0.00 | 0.02 | 0.02 | 86 | 1012.9 |
| 20260506213659 | 60 | 18 | 9.0 | 14.0 | 0.00 | 0.02 | 0.02 | 85 | 1013.0 |
| 20260506213155 | 61 | 59 | 7.0 | 8.0 | 0.00 | 0.02 | 0.02 | 85 | 1012.6 |
| 20260506212653 | 61 | 340 | 4.0 | 7.0 | 0.00 | 0.02 | 0.02 | 84 | 1012.7 |
| 20260506212148 | 61 | 23 | 5.0 | 8.0 | 0.00 | 0.02 | 0.02 | 84 | 1013.0 |
| 20260506211644 | 61 | 39 | 7.0 | 9.0 | 0.00 | 0.02 | 0.02 | 84 | 1013.2 |
| 20260506211141 | 61 | 26 | 5.0 | 6.0 | 0.00 | 0.02 | 0.02 | 85 | 1013.1 |
| 20260506210638 | 61 | 59 | 6.0 | 8.0 | 0.00 | 0.02 | 0.02 | 83 | 1013.2 |
| 20260506210134 | 61 | 320 | 7.0 | 10.0 | 0.00 | 0.02 | 0.02 | 83 | 1013.2 |
| 20260506205631 | 62 | 343 | 7.0 | 9.0 | 0.00 | 0.02 | 0.02 | 83 | 1013.3 |
| 20260506205126 | 62 | 27 | 5.0 | 7.0 | 0.00 | 0.02 | 0.02 | 82 | 1013.3 |
| 20260506204625 | 63 | 333 | 3.0 | 5.0 | 0.00 | 0.02 | 0.02 | 82 | 1013.3 |
| 20260506204121 | 62 | 46 | 6.0 | 8.0 | 0.00 | 0.02 | 0.02 | 82 | 1013.2 |
| 20260506203619 | 61 | 7 | 9.0 | 11.0 | 0.00 | 0.02 | 0.02 | 84 | 1013.3 |
| 20260506203116 | 61 | 37 | 2.0 | 3.0 | 0.00 | 0.02 | 0.02 | 84 | 1013.6 |
| 20260506202614 | 62 | 2 | 2.0 | 2.0 | 0.00 | 0.02 | 0.02 | 83 | 1013.6 |
| 20260506202109 | 62 | 34 | 8.0 | 13.0 | 0.00 | 0.02 | 0.02 | 83 | 1013.2 |
| 20260506201607 | 62 | 3 | 7.0 | 14.0 | 0.00 | 0.02 | 0.02 | 83 | 1013.3 |
| 20260506201103 | 62 | 338 | 7.0 | 11.0 | 0.00 | 0.02 | 0.02 | 83 | 1013.2 |
| 20260506200559 | 62 | 52 | 7.0 | 9.0 | 0.00 | 0.02 | 0.02 | 83 | 1013.2 |
| 20260506200056 | 64 | 143 | 7.0 | 9.0 | 0.00 | 0.02 | 0.02 | 81 | 1013.1 |
| 20260506195553 | 64 | 317 | 12.0 | 20.0 | 0.00 | 0.02 | 0.02 | 80 | 1013.1 |
| 20260506195050 | 65 | 330 | 4.0 | 7.0 | 0.00 | 0.02 | 0.02 | 79 | 1013.1 |
| 20260506194548 | 65 | 324 | 6.0 | 9.0 | 0.00 | 0.02 | 0.02 | 80 | 1013.1 |
| 20260506194043 | 65 | 15 | 8.0 | 13.0 | 0.00 | 0.02 | 0.02 | 81 | 1013.1 |
| 20260506193541 | 65 | 22 | 7.0 | 10.0 | 0.00 | 0.02 | 0.02 | 81 | 1013.2 |
| 20260506193038 | 65 | 335 | 6.0 | 9.0 | 0.00 | 0.02 | 0.02 | 82 | 1013.0 |
| 20260506192534 | 64 | 35 | 9.0 | 14.0 | 0.00 | 0.02 | 0.02 | 82 | 1013.1 |
| 20260506192030 | 65 | 20 | 3.0 | 7.0 | 0.00 | 0.02 | 0.02 | 83 | 1012.9 |
| 20260506191527 | 65 | 37 | 9.0 | 16.0 | 0.00 | 0.02 | 0.02 | 83 | 1013.1 |
| 20260506191023 | 64 | 352 | 15.0 | 18.0 | 0.00 | 0.02 | 0.02 | 85 | 1013.2 |
| 20260506190521 | 65 | 28 | 6.0 | 8.0 | 0.00 | 0.02 | 0.02 | 83 | 1013.0 |
| 20260506190019 | 65 | 341 | 11.0 | 15.0 | 0.00 | 0.02 | 0.02 | 85 | 1013.2 |
| 20260506185515 | 66 | 354 | 12.0 | 17.0 | 0.00 | 0.02 | 0.02 | 83 | 1013.0 |
| 20260506185011 | 67 | 38 | 9.0 | 11.0 | 0.00 | 0.02 | 0.02 | 82 | 1013.2 |
| 20260506184509 | 67 | 328 | 7.0 | 14.0 | 0.00 | 0.02 | 0.02 | 82 | 1013.1 |
| 20260506184006 | 68 | 27 | 8.0 | 10.0 | 0.00 | 0.02 | 0.02 | 81 | 1012.9 |
| 20260506183501 | 73 | 37 | 9.0 | 11.0 | 0.00 | 0.02 | 0.02 | 76 | 1012.9 |
| 20260506182958 | 73 | 43 | 5.0 | 8.0 | 0.00 | 0.02 | 0.02 | 75 | 1012.5 |
| 20260506182455 | 75 | 39 | 5.0 | 9.0 | 0.00 | 0.02 | 0.02 | 74 | 1012.6 |
| 20260506181948 | 75 | 7 | 2.0 | 3.0 | 0.00 | 0.02 | 0.02 | 73 | 1012.7 |
| 20260506181446 | 74 | 21 | 3.0 | 3.0 | 0.00 | 0.02 | 0.02 | 74 | 1012.7 |
| 20260506180942 | 74 | 58 | 6.0 | 7.0 | 0.00 | 0.02 | 0.02 | 74 | 1012.9 |
| 20260506180438 | 74 | 333 | 3.0 | 5.0 | 0.00 | 0.02 | 0.02 | 73 | 1012.7 |
| 20260506175935 | 73 | 74 | 4.0 | 5.0 | 0.00 | 0.02 | 0.02 | 77 | 1012.6 |
| 20260506175432 | 73 | 14 | 1.0 | 1.0 | 0.00 | 0.02 | 0.02 | 76 | 1012.6 |
| 20260506174928 | 72 | 13 | 5.0 | 7.0 | 0.00 | 0.02 | 0.02 | 78 | 1012.6 |
| 20260506174426 | 71 | 93 | 3.0 | 6.0 | 0.00 | 0.02 | 0.02 | 79 | 1012.1 |
| 20260506173917 | 71 | 306 | 1.0 | 2.0 | 0.00 | 0.02 | 0.02 | 80 | 1012.1 |
| 20260506173414 | 71 | 53 | 3.0 | 7.0 | 0.00 | 0.02 | 0.02 | 80 | 1012.1 |
| 20260506172911 | 69 | 80 | 4.0 | 7.0 | 0.00 | 0.02 | 0.02 | 82 | 1012.2 |
| 20260506172407 | 69 | 339 | 2.0 | 5.0 | 0.00 | 0.02 | 0.02 | 82 | 1012.3 |
| 20260506171905 | 68 | 325 | 1.0 | 2.0 | 0.00 | 0.02 | 0.02 | 84 | 1012.1 |
| 20260506171402 | 68 | 352 | 2.0 | 3.0 | 0.00 | 0.02 | 0.02 | 85 | 1012.3 |
| 20260506170859 | 66 | 11 | 3.0 | 5.0 | 0.00 | 0.02 | 0.02 | 88 | 1012.3 |
| 20260506170355 | 65 | 83 | 8.0 | 10.0 | 0.00 | 0.02 | 0.02 | 90 | 1012.2 |
| 20260506165849 | 64 | 0 | 9.0 | 13.0 | 0.00 | 0.02 | 0.02 | 93 | 1012.3 |
| 20260506165346 | 64 | 44 | 4.0 | 7.0 | 0.00 | 0.02 | 0.02 | 94 | 1012.3 |
| 20260506164842 | 62 | 65 | 8.0 | 13.0 | 0.00 | 0.02 | 0.02 | 95 | 1012.3 |
| 20260506164339 | 62 | 56 | 6.0 | 9.0 | 0.00 | 0.02 | 0.02 | 95 | 1012.3 |
| 20260506163837 | 62 | 65 | 6.0 | 8.0 | 0.00 | 0.02 | 0.02 | 95 | 1012.9 |
| 20260506163331 | 61 | 25 | 5.0 | 6.0 | 0.00 | 0.02 | 0.02 | 95 | 1012.6 |
| 20260506162827 | 62 | 346 | 5.0 | 7.0 | 0.07 | 0.02 | 0.02 | 95 | 1013.1 |
| 20260506162325 | 62 | 64 | 9.0 | 13.0 | 0.12 | 0.02 | 0.02 | 95 | 1013.2 |
| 20260506161822 | 61 | 7 | 8.0 | 11.0 | 0.05 | 0.01 | 0.01 | 95 | 1013.4 |
| 20260506161319 | 61 | 347 | 5.0 | 7.0 | 0.00 | 0.00 | 0.00 | 94 | 1013.6 |
| 20260506160812 | 61 | 52 | 7.0 | 11.0 | 0.00 | 0.00 | 0.00 | 93 | 1013.6 |
| 20260506160308 | 61 | 357 | 9.0 | 14.0 | 0.00 | 0.00 | 0.00 | 92 | 1013.6 |
| 20260506155807 | 61 | 37 | 8.0 | 11.0 | 0.00 | 0.00 | 0.00 | 91 | 1014.1 |
| 20260506155306 | 61 | 32 | 7.0 | 14.0 | 0.00 | 0.00 | 0.00 | 92 | 1014.0 |
| 20260506153415 | 63 | 53 | 9.0 | 16.0 | 0.00 | 0.00 | 0.00 | 92 | 1013.3 |
| 20260506152913 | 63 | 39 | 5.0 | 7.0 | 0.00 | 0.00 | 0.00 | 92 | 1013.6 |
| 20260506152409 | 64 | 57 | 7.0 | 15.0 | 0.00 | 0.00 | 0.00 | 92 | 1013.4 |
| 20260506151908 | 64 | 40 | 9.0 | 14.0 | 0.00 | 0.00 | 0.00 | 92 | 1013.3 |
| 20260506151404 | 65 | 17 | 5.0 | 6.0 | 0.00 | 0.00 | 0.00 | 92 | 1013.2 |
| 20260506150902 | 65 | 350 | 6.0 | 10.0 | 0.00 | 0.00 | 0.00 | 92 | 1013.1 |
| 20260506150358 | 65 | 357 | 4.0 | 6.0 | 0.00 | 0.00 | 0.00 | 92 | 1013.0 |
| 20260506145855 | 65 | 336 | 5.0 | 8.0 | 0.00 | 0.00 | 0.00 | 92 | 1012.7 |
| 20260506145351 | 66 | 18 | 8.0 | 14.0 | 0.00 | 0.00 | 0.00 | 92 | 1012.6 |
| 20260506144849 | 66 | 14 | 5.0 | 8.0 | 0.00 | 0.00 | 0.00 | 92 | 1012.2 |
| 20260506144345 | 67 | 48 | 11.0 | 15.0 | 0.00 | 0.00 | 0.00 | 91 | 1011.7 |
| 20260506143844 | 68 | 15 | 7.0 | 9.0 | 0.00 | 0.00 | 0.00 | 91 | 1011.8 |
| 20260506143340 | 69 | 325 | 7.0 | 9.0 | 0.00 | 0.00 | 0.00 | 90 | 1011.9 |
| 20260506142839 | 72 | 338 | 8.0 | 11.0 | 0.00 | 0.00 | 0.00 | 87 | 1011.4 |
| 20260506142336 | 77 | 317 | 0.0 | 0.0 | 0.00 | 0.00 | 0.00 | 86 | 1011.3 |
| 20260506141834 | 77 | 275 | 2.0 | 3.0 | 0.00 | 0.00 | 0.00 | 88 | 1010.7 |
| 20260506141332 | 76 | 201 | 0.0 | 1.0 | 0.00 | 0.00 | 0.00 | 89 | 1010.7 |
| 20260506140830 | 76 | 161 | 2.0 | 3.0 | 0.00 | 0.00 | 0.00 | 89 | 1010.8 |
| 20260506140327 | 76 | 128 | 4.0 | 6.0 | 0.00 | 0.00 | 0.00 | 89 | 1011.0 |
| 20260506135824 | 76 | 271 | 1.0 | 2.0 | 0.00 | 0.00 | 0.00 | 90 | 1010.8 |
| 20260506135320 | 75 | 295 | 1.0 | 1.0 | 0.00 | 0.00 | 0.00 | 90 | 1011.2 |
| 20260506134817 | 75 | 299 | 0.0 | 1.0 | 0.00 | 0.00 | 0.00 | 91 | 1011.0 |
| 20260506134313 | 75 | 283 | 2.0 | 2.0 | 0.00 | 0.00 | 0.00 | 91 | 1010.6 |
| 20260506133810 | 75 | 215 | 1.0 | 1.0 | 0.00 | 0.00 | 0.00 | 92 | 1010.5 |
| 20260506133307 | 75 | 318 | 1.0 | 1.0 | 0.00 | 0.00 | 0.00 | 92 | 1010.8 |